TimeCDT,TemperatureF,Dew PointF,Humidity,Sea Level PressureIn,VisibilityMPH,Wind Direction,Wind SpeedMPH,Gust SpeedMPH,PrecipitationIn,Events,Conditions,WindDirDegrees,DateUTC
12:15 AM,78.1,69.4,75,29.94,10.0,Calm,Calm,-,N/A,,Mostly Cloudy,0,2013-08-30 05:15:00
12:35 AM,77.4,69.4,76,29.93,10.0,Calm,Calm,-,N/A,,Scattered Clouds,0,2013-08-30 05:35:00
12:55 AM,77.0,69.4,77,29.93,10.0,SW,3.5,-,N/A,,Scattered Clouds,220,2013-08-30 05:55:00
1:15 AM,76.6,69.3,78,29.93,10.0,Calm,Calm,-,N/A,,Scattered Clouds,0,2013-08-30 06:15:00
1:35 AM,76.3,69.3,79,29.92,10.0,SSW,3.5,-,N/A,,Scattered Clouds,200,2013-08-30 06:35:00
1:55 AM,76.3,69.3,79,29.92,10.0,Calm,Calm,-,N/A,,Scattered Clouds,0,2013-08-30 06:55:00
2:15 AM,75.7,69.3,80,29.91,10.0,SSW,3.5,-,N/A,,Clear,210,2013-08-30 07:15:00
2:35 AM,75.6,69.4,81,29.91,10.0,SSW,3.5,-,N/A,,Scattered Clouds,210,2013-08-30 07:35:00
2:55 AM,75.2,69.4,82,29.91,10.0,Calm,Calm,-,N/A,,Clear,0,2013-08-30 07:55:00
3:15 AM,74.1,69.6,86,29.89,10.0,South,5.8,-,N/A,,Clear,190,2013-08-30 08:15:00
3:35 AM,74.3,70.7,88,29.88,10.0,South,3.5,-,N/A,,Clear,190,2013-08-30 08:35:00
3:55 AM,74.3,70.9,89,29.88,10.0,Calm,Calm,-,N/A,,Clear,0,2013-08-30 08:55:00
4:15 AM,74.3,70.9,89,29.88,10.0,Calm,Calm,-,N/A,,Scattered Clouds,0,2013-08-30 09:15:00
4:35 AM,74.3,71.1,90,29.88,7.0,SSW,3.5,-,N/A,,Scattered Clouds,210,2013-08-30 09:35:00
4:55 AM,73.9,71.1,91,29.87,7.0,Calm,Calm,-,N/A,,Clear,0,2013-08-30 09:55:00
5:15 AM,73.6,71.1,92,29.86,7.0,Calm,Calm,-,N/A,,Clear,0,2013-08-30 10:15:00
5:35 AM,73.6,71.2,92,29.86,7.0,Calm,Calm,-,N/A,,Clear,0,2013-08-30 10:35:00
6:15 AM,72.1,70.3,94,29.86,5.0,South,3.5,-,N/A,,Clear,170,2013-08-30 11:15:00
6:35 AM,72.5,70.9,95,29.86,5.0,Calm,Calm,-,N/A,,Clear,0,2013-08-30 11:35:00
6:55 AM,73.9,71.6,92,29.86,5.0,SSW,3.5,-,N/A,,Scattered Clouds,210,2013-08-30 11:55:00
7:15 AM,75.0,71.8,90,29.85,7.0,Calm,Calm,-,N/A,,Scattered Clouds,0,2013-08-30 12:15:00
7:35 AM,75.9,72.0,87,29.85,7.0,Calm,Calm,-,N/A,,Clear,0,2013-08-30 12:35:00
7:55 AM,77.0,72.0,84,29.85,7.0,SSW,3.5,-,N/A,,Clear,210,2013-08-30 12:55:00
8:55 AM,79.7,70.9,74,29.85,10.0,WSW,3.5,-,N/A,,Mostly Cloudy,240,2013-08-30 13:55:00
9:15 AM,80.4,71.2,73,29.86,10.0,WSW,4.6,-,N/A,,Overcast,250,2013-08-30 14:15:00
9:35 AM,81.1,71.1,71,29.86,10.0,West,5.8,-,N/A,,Overcast,260,2013-08-30 14:35:00
9:55 AM,82.2,70.9,68,29.85,10.0,West,5.8,-,N/A,,Overcast,260,2013-08-30 14:55:00
10:15 AM,82.0,71.1,69,29.85,10.0,WSW,4.6,-,N/A,,Overcast,250,2013-08-30 15:15:00
10:35 AM,82.8,70.9,67,29.85,10.0,West,4.6,-,N/A,,Overcast,270,2013-08-30 15:35:00
10:55 AM,83.3,70.7,66,29.85,10.0,West,4.6,-,N/A,,Mostly Cloudy,280,2013-08-30 15:55:00
11:15 AM,83.1,70.7,66,29.85,10.0,WNW,4.6,-,N/A,,Overcast,290,2013-08-30 16:15:00
11:35 AM,84.2,70.7,64,29.85,10.0,NNW,8.1,-,N/A,,Overcast,330,2013-08-30 16:35:00
11:55 AM,84.9,70.7,62,29.86,10.0,NW,10.4,16.1,N/A,,Overcast,320,2013-08-30 16:55:00
12:15 PM,83.8,70.5,64,29.87,10.0,NNW,11.5,17.3,N/A,,Overcast,330,2013-08-30 17:15:00
12:35 PM,83.1,69.8,64,29.87,10.0,NW,6.9,-,N/A,,Overcast,320,2013-08-30 17:35:00
12:55 PM,85.8,69.8,59,29.86,10.0,NNW,4.6,-,N/A,,Mostly Cloudy,330,2013-08-30 17:55:00
1:15 PM,87.3,68.5,54,29.86,10.0,NW,8.1,16.1,N/A,,Scattered Clouds,320,2013-08-30 18:15:00
1:35 PM,88.0,66.2,48,29.86,10.0,NW,8.1,-,N/A,,Scattered Clouds,320,2013-08-30 18:35:00
1:55 PM,87.3,65.8,49,29.86,10.0,NNW,6.9,-,N/A,,Clear,330,2013-08-30 18:55:00
2:15 PM,87.8,65.8,48,29.86,10.0,NW,6.9,-,N/A,,Scattered Clouds,320,2013-08-30 19:15:00
2:35 PM,88.3,65.7,47,29.85,10.0,WNW,9.2,-,N/A,,Clear,300,2013-08-30 19:35:00
2:55 PM,88.7,65.5,46,29.85,10.0,NNW,12.7,-,N/A,,Clear,340,2013-08-30 19:55:00
3:15 PM,88.9,64.0,43,29.84,10.0,NW,12.7,-,N/A,,Clear,310,2013-08-30 20:15:00
3:35 PM,89.6,62.2,40,29.84,10.0,NW,9.2,16.1,N/A,,Clear,320,2013-08-30 20:35:00
3:55 PM,89.1,62.2,41,29.84,10.0,NW,10.4,-,N/A,,Clear,320,2013-08-30 20:55:00
4:15 PM,89.1,62.2,41,29.84,10.0,NNW,6.9,-,N/A,,Clear,340,2013-08-30 21:15:00
4:35 PM,88.3,61.7,41,29.84,10.0,NW,10.4,-,N/A,,Scattered Clouds,320,2013-08-30 21:35:00
4:55 PM,88.2,61.3,40,29.84,10.0,NNW,8.1,-,N/A,,Clear,340,2013-08-30 21:55:00
5:15 PM,88.0,61.3,41,29.84,10.0,North,8.1,-,N/A,,Scattered Clouds,360,2013-08-30 22:15:00
5:35 PM,87.4,60.4,40,29.83,10.0,NNE,5.8,-,N/A,,Clear,20,2013-08-30 22:35:00
5:55 PM,86.7,60.3,41,29.84,10.0,North,6.9,-,N/A,,Clear,350,2013-08-30 22:55:00
6:15 PM,86.0,60.1,41,29.84,10.0,North,9.2,-,N/A,,Clear,350,2013-08-30 23:15:00
6:35 PM,85.3,60.6,43,29.84,10.0,North,8.1,-,N/A,,Clear,360,2013-08-30 23:35:00
6:55 PM,83.7,62.1,48,29.85,10.0,NNE,6.9,-,N/A,,Clear,20,2013-08-30 23:55:00
7:15 PM,81.5,62.1,52,29.86,10.0,ENE,8.1,-,N/A,,Clear,70,2013-08-31 00:15:00
7:35 PM,79.7,62.1,55,29.87,10.0,ENE,8.1,-,N/A,,Clear,60,2013-08-31 00:35:00
7:55 PM,78.4,61.9,57,29.87,10.0,ENE,6.9,-,N/A,,Clear,60,2013-08-31 00:55:00
8:15 PM,77.2,62.1,59,29.87,10.0,ENE,5.8,-,N/A,,Clear,60,2013-08-31 01:15:00
8:35 PM,76.3,62.4,62,29.88,10.0,ENE,6.9,-,N/A,,Clear,70,2013-08-31 01:35:00
8:55 PM,75.6,62.4,64,29.88,10.0,ENE,6.9,-,N/A,,Clear,60,2013-08-31 01:55:00
9:15 PM,75.2,62.6,65,29.89,10.0,ENE,6.9,-,N/A,,Clear,60,2013-08-31 02:15:00
9:35 PM,74.3,62.6,67,29.89,10.0,ENE,4.6,-,N/A,,Clear,60,2013-08-31 02:35:00
9:55 PM,73.4,62.6,69,29.89,10.0,ENE,3.5,-,N/A,,Clear,60,2013-08-31 02:55:00
10:15 PM,72.7,62.6,71,29.89,10.0,ENE,4.6,-,N/A,,Clear,70,2013-08-31 03:15:00
10:35 PM,72.1,62.2,71,29.89,10.0,ENE,4.6,-,N/A,,Clear,60,2013-08-31 03:35:00
10:55 PM,71.4,62.1,72,29.89,10.0,ENE,4.6,-,N/A,,Clear,60,2013-08-31 03:55:00
11:15 PM,70.7,62.1,74,29.89,10.0,ENE,4.6,-,N/A,,Clear,60,2013-08-31 04:15:00
11:35 PM,70.5,62.2,75,29.89,10.0,East,4.6,-,N/A,,Clear,80,2013-08-31 04:35:00